Drummond Island, MI

8:40 PM EST on February 20, 2018 (GMT -0500)
Drummond Island

Weather History for KDRM - February, 2014

Change the Weather History Date:

Tuesday, February 18, 2014

  Actual Average (KCIU) Record (KCIU)
Temperature  
Mean Temperature 16 °F -  
Max Temperature 24 °F 29 °F 48 °F (2017)
Min Temperature 9 °F 5 °F -34 °F (1979)
Degree Days  
Heating Degree Days 48    
Moisture  
Dew Point 15 °F    
Average Humidity 83    
Maximum Humidity 94    
Minimum Humidity 67    
Precipitation  
Precipitation 0.00 in - - ()
Sea Level Pressure  
Sea Level Pressure 29.73 in    
Wind  
Wind Speed 6 mph (SE)    
Max Wind Speed 15 mph    
Max Gust Speed 24 mph    
Visibility 8 miles    
Events Snow    
Averages and records for this station are not official NWS values.
T = Trace of Precipitation, MM = Missing Value Source: NWS Daily Summary

Daily Weather History Graph

Daily Weather History Graph

Search for Another Location

Airport or City:

Trip Planner

Search our weather history database for the weather conditions in past years. The results will help you decide how hot, cold, wet, or windy it might be!

Date:

Astronomy

Feb. 18, 2014 Rise Set
Actual Time 7:32 AM EST 6:05 PM EST
Civil Twilight 7:02 AM EST 6:36 PM EST
Nautical Twilight 6:27 AM EST 7:11 PM EST
Astronomical Twilight 5:52 AM EST 7:45 PM EST
Moon 10:13 PM EST (2/18) 8:51 AM EST (2/18)
Length of Visible Light 11h 33m
Length of Day
10h 32m
Waning Gibbous, 87% of the Moon is Illuminated
Feb 18
Waning Gibbous
Feb 22
Last Quarter
Mar 1
New
Mar 8
First Quarter
Mar 16
Full

Hourly Weather History & Observations

Time (EST) Temp. Windchill Dew Point Humidity Pressure Visibility Wind Dir Wind Speed Gust Speed Precip Events Conditions
12:15 AM 14.4 °F 5.5 °F 11.1 °F 87% 29.79 in 1.2 mi ENE 5.8 mph - N/A Snow Light Snow
12:35 AM 14.7 °F 4.8 °F 11.3 °F 86% 29.78 in 2.0 mi ENE 6.9 mph - N/A Snow Light Snow
12:55 AM 14.9 °F 7.5 °F 11.3 °F 86% 29.78 in 2.5 mi ENE 4.6 mph - N/A Snow Light Snow
1:15 AM 14.9 °F 6.1 °F 11.7 °F 87% 29.77 in 3.0 mi East 5.8 mph - N/A Snow Light Snow
1:35 AM 15.3 °F 5.4 °F 11.8 °F 86% 29.76 in 3.0 mi ENE 6.9 mph - N/A Snow Light Snow
1:55 AM 15.4 °F 9.8 °F 12.0 °F 86% 29.75 in 4.0 mi ENE 3.5 mph - N/A Snow Light Snow
2:15 AM 15.4 °F 8.1 °F 12.0 °F 86% 29.75 in 4.0 mi ENE 4.6 mph - N/A Snow Light Snow
2:35 AM 15.6 °F 7.0 °F 12.2 °F 86% 29.75 in 7.0 mi East 5.8 mph - N/A Snow Light Snow
2:55 AM 15.6 °F 8.3 °F 12.2 °F 86% 29.74 in 2.0 mi East 4.6 mph - N/A Snow Light Snow
3:15 AM 15.6 °F 4.9 °F 12.2 °F 86% 29.74 in 3.0 mi East 8.1 mph - N/A Snow Light Snow
3:35 AM 15.6 °F 5.9 °F 12.2 °F 86% 29.74 in 5.0 mi East 6.9 mph - N/A Snow Light Snow
3:55 AM 15.8 °F 6.1 °F 12.2 °F 86% 29.74 in 4.0 mi East 6.9 mph - N/A Snow Light Snow
4:14 AM 15.8 °F 6.1 °F 12.2 °F 86% 29.73 in 2.5 mi East 6.9 mph - N/A Snow Light Snow
4:35 AM 15.8 °F 7.2 °F 12.6 °F 87% 29.74 in 3.0 mi East 5.8 mph - N/A Snow Light Snow
4:55 AM 15.8 °F 10.2 °F 12.2 °F 86% 29.74 in 5.0 mi East 3.5 mph - N/A Snow Light Snow
5:15 AM 15.8 °F - 12.6 °F 87% 29.75 in 10.0 mi Calm Calm - N/A   Overcast
5:35 AM 15.8 °F - 12.6 °F 87% 29.74 in 10.0 mi Calm Calm - N/A   Overcast
5:55 AM 17.1 °F - 12.9 °F 84% 29.75 in 4.0 mi Calm Calm - N/A Snow Light Snow
6:15 AM 16.0 °F - 12.0 °F 84% 29.76 in 4.0 mi Calm Calm - N/A Snow Light Snow
6:35 AM 16.2 °F - 12.0 °F 84% 29.77 in 1.8 mi Calm Calm - N/A Snow Light Snow
6:55 AM 13.3 °F - 10.9 °F 90% 29.77 in 5.0 mi Calm Calm - N/A Snow Light Snow
7:15 AM 12.6 °F - 10.8 °F 92% 29.78 in 2.5 mi Calm Calm - N/A Snow Light Snow
7:35 AM 11.7 °F - 9.7 °F 92% 29.78 in 5.0 mi Calm Calm - N/A Snow Light Snow
7:54 AM 10.6 °F - 8.4 °F 91% 29.78 in 4.0 mi Calm Calm - N/A   Clear
8:15 AM 9.7 °F - 7.5 °F 91% 29.78 in 10.0 mi Calm Calm - N/A   Mostly Cloudy
8:35 AM 9.5 °F - 7.3 °F 91% 29.79 in 10.0 mi Calm Calm - N/A   Scattered Clouds
8:55 AM 10.9 °F - 8.6 °F 90% 29.79 in 10.0 mi Calm Calm - N/A   Clear
9:15 AM 13.1 °F - 11.1 °F 92% 29.80 in 10.0 mi Calm Calm - N/A   Clear
9:35 AM 15.3 °F - 12.9 °F 90% 29.79 in 10.0 mi Calm Calm - N/A   Clear
9:55 AM 18.3 °F - 14.0 °F 83% 29.80 in 10.0 mi Calm Calm - N/A   Clear
10:15 AM 18.1 °F 11.3 °F 13.1 °F 81% 29.80 in 10.0 mi WSW 4.6 mph - N/A   Clear
10:35 AM 19.4 °F 14.3 °F 13.6 °F 78% 29.80 in 10.0 mi WSW 3.5 mph - N/A   Clear
10:55 AM 19.8 °F 11.9 °F 13.8 °F 78% 29.81 in 10.0 mi SW 5.8 mph - N/A   Scattered Clouds
11:15 AM 20.8 °F 16.0 °F 14.0 °F 75% 29.80 in 10.0 mi WSW 3.5 mph - N/A   Scattered Clouds
11:34 AM 20.3 °F 12.5 °F 14.0 °F 77% 29.80 in 10.0 mi SSW 5.8 mph - N/A   Clear
11:55 AM 21.0 °F 10.6 °F 14.0 °F 74% 29.81 in 10.0 mi SW 9.2 mph - N/A   Clear
12:15 PM 21.2 °F 11.7 °F 14.5 °F 75% 29.81 in 3.0 mi WSW 8.1 mph 16.1 mph N/A   Haze
12:35 PM 21.4 °F 13.8 °F 14.7 °F 75% 29.80 in 10.0 mi WSW 5.8 mph - N/A   Clear
12:55 PM 22.6 °F 14.3 °F 14.4 °F 71% 29.79 in 10.0 mi SW 6.9 mph - N/A   Clear
1:15 PM 22.8 °F 14.5 °F 14.4 °F 70% 29.78 in 10.0 mi SSW 6.9 mph - N/A   Clear
1:35 PM 23.2 °F 17.2 °F 14.5 °F 70% 29.78 in 10.0 mi South 4.6 mph - N/A   Clear
1:55 PM 23.9 °F 18.0 °F 14.7 °F 68% 29.77 in 10.0 mi SSW 4.6 mph - N/A   Clear
2:15 PM 23.9 °F 15.0 °F 15.1 °F 69% 29.78 in 10.0 mi South 8.1 mph - N/A   Clear
2:35 PM 23.9 °F 14.2 °F 14.4 °F 67% 29.78 in 10.0 mi South 9.2 mph - N/A   Clear
2:55 PM 24.8 °F 19.1 °F 15.6 °F 68% 29.76 in 10.0 mi SE 4.6 mph - N/A   Clear
3:15 PM 24.1 °F 17.0 °F 15.8 °F 71% 29.75 in 10.0 mi SE 5.8 mph - N/A   Clear
3:35 PM 24.4 °F 15.6 °F 15.8 °F 70% 29.74 in 10.0 mi SSE 8.1 mph - N/A   Clear
3:55 PM 24.1 °F 13.7 °F 15.6 °F 70% 29.74 in 10.0 mi SE 10.4 mph - N/A   Clear
4:15 PM 23.7 °F 12.6 °F 16.5 °F 74% 29.74 in 10.0 mi SSE 11.5 mph 17.3 mph N/A   Clear
4:35 PM 23.0 °F 13.1 °F 17.1 °F 78% 29.70 in 10.0 mi ESE 9.2 mph 17.3 mph N/A   Scattered Clouds
4:54 PM 23.0 °F 11.7 °F 17.6 °F 80% 29.72 in 10.0 mi SE 11.5 mph - N/A   Mostly Cloudy
5:15 PM 23.0 °F 10.1 °F 18.3 °F 82% 29.73 in 10.0 mi SE 15.0 mph 21.9 mph N/A   Mostly Cloudy
5:35 PM 22.8 °F 10.9 °F 18.5 °F 83% 29.68 in 10.0 mi ESE 12.7 mph 24.2 mph N/A   Mostly Cloudy
5:55 PM 23.0 °F 13.1 °F 18.5 °F 83% 29.68 in 10.0 mi ESE 9.2 mph 18.4 mph N/A   Mostly Cloudy
6:15 PM 23.4 °F 12.8 °F 18.9 °F 83% 29.69 in 10.0 mi ESE 10.4 mph - N/A   Mostly Cloudy
6:35 PM 23.5 °F 14.5 °F 19.4 °F 84% 29.68 in 10.0 mi ESE 8.1 mph - N/A   Overcast
6:55 PM 23.7 °F 14.0 °F 19.8 °F 85% 29.68 in 10.0 mi ESE 9.2 mph - N/A   Overcast
7:15 PM 24.3 °F 13.3 °F 20.3 °F 85% 29.66 in 10.0 mi SE 11.5 mph 16.1 mph N/A   Mostly Cloudy
7:35 PM 24.3 °F 13.9 °F 21.2 °F 88% 29.67 in 10.0 mi SE 10.4 mph 18.4 mph N/A   Scattered Clouds
7:55 PM 24.3 °F 13.9 °F 21.9 °F 91% 29.67 in 10.0 mi SSE 10.4 mph 17.3 mph N/A   Clear
8:15 PM 23.9 °F 12.9 °F 21.9 °F 92% 29.66 in 10.0 mi SE 11.5 mph 18.4 mph N/A   Clear
8:35 PM 24.3 °F 12.7 °F 22.1 °F 91% 29.65 in 10.0 mi SE 12.7 mph 19.6 mph N/A   Clear
8:55 PM 24.3 °F 13.9 °F 21.9 °F 91% 29.64 in 10.0 mi SE 10.4 mph 17.3 mph N/A   Clear
9:15 PM 23.9 °F 13.5 °F 21.2 °F 89% 29.63 in 10.0 mi SE 10.4 mph 16.1 mph N/A   Clear
9:34 PM 23.7 °F 14.0 °F 21.0 °F 89% 29.62 in 10.0 mi SE 9.2 mph 16.1 mph N/A   Clear
9:55 PM 23.5 °F 14.5 °F 20.8 °F 89% 29.62 in 10.0 mi SE 8.1 mph - N/A   Clear
10:15 PM 23.7 °F 13.3 °F 21.0 °F 89% 29.61 in 10.0 mi SE 10.4 mph - N/A   Clear
10:35 PM 23.7 °F 14.0 °F 20.8 °F 89% 29.60 in 10.0 mi SE 9.2 mph - N/A   Clear
10:55 PM 23.7 °F 15.6 °F 20.8 °F 89% 29.59 in 10.0 mi SE 6.9 mph - N/A   Clear
11:15 PM 23.0 °F 17.0 °F 21.0 °F 92% 29.58 in 10.0 mi SE 4.6 mph - N/A   Clear
11:35 PM 23.0 °F 15.8 °F 21.2 °F 93% 29.58 in 10.0 mi SE 5.8 mph - N/A   Scattered Clouds
11:55 PM 23.5 °F 17.6 °F 22.1 °F 94% 29.57 in 7.0 mi SE 4.6 mph - N/A   Mostly Cloudy